GW1039 Weather Reports


time (UTC)temp
F
wind
direction
speed
knots
gust
knots
rain 1hr
in
rain 24hr
in
rain mn
in
humidity
%
barometer
mb
20260506044821 62 276 4.3 6.1 0.00 0.20 0.20 48 1014.7
20260506044319 62 287 1.7 6.1 0.00 0.20 0.20 50 1014.8
20260506043816 63 316 0.9 2.6 0.00 0.20 0.20 51 1014.6
20260506043314 63 289 1.7 4.3 0.00 0.20 0.20 50 1014.6
20260506042812 63 264 1.7 2.6 0.00 0.20 0.20 50 1014.6
20260506042311 63 295 2.6 4.3 0.00 0.20 0.20 50 1014.4
20260506041809 63 252 4.3 6.1 0.00 0.20 0.20 50 1014.7
20260506041305 63 327 1.7 1.7 0.00 0.20 0.20 50 1014.6
20260506040803 63 311 0.9 5.2 0.00 0.20 0.20 48 1014.4
20260506040300 64 282 2.6 4.3 0.00 0.20 0.20 47 1014.3
20260506035756 64 282 4.3 7.0 0.00 0.20 0.20 46 1014.1
20260506035253 64 305 4.3 5.2 0.00 0.20 0.20 45 1014.3
20260506034750 63 295 1.7 4.3 0.00 0.20 0.20 45 1014.0
20260506034248 63 270 2.6 6.1 0.00 0.20 0.20 45 1014.1
20260506033744 63 330 0.9 2.6 0.00 0.20 0.20 45 1013.9
20260506033241 64 334 1.7 1.7 0.00 0.20 0.20 44 1013.7
20260506032738 64 322 0.9 1.7 0.00 0.20 0.20 44 1013.6
20260506032235 64 309 1.7 2.6 0.00 0.20 0.20 42 1013.7
20260506031732 64 301 0.9 2.6 0.00 0.20 0.20 43 1013.7
20260506031229 65 299 2.6 4.3 0.00 0.20 0.20 41 1013.5
20260506030728 65 284 1.7 5.2 0.00 0.20 0.20 41 1013.4
20260506030225 65 289 0.9 4.3 0.00 0.20 0.20 41 1013.5
20260506025721 65 307 1.7 5.2 0.00 0.20 0.20 40 1013.3
20260506025218 65 286 4.3 6.1 0.00 0.20 0.20 39 1013.2
20260506024715 65 257 4.3 7.0 0.00 0.20 0.20 39 1013.2
20260506024211 65 291 3.5 7.0 0.00 0.20 0.20 39 1013.2
20260506023708 66 310 3.5 7.8 0.00 0.20 0.20 38 1012.9
20260506023205 66 272 4.3 7.0 0.00 0.20 0.20 37 1012.7
20260506022702 66 268 5.2 7.0 0.00 0.20 0.20 37 1012.7
20260506022159 66 290 2.6 7.8 0.00 0.20 0.20 36 1012.8
20260506021657 66 278 2.6 6.1 0.00 0.20 0.20 36 1012.6
20260506021154 66 302 2.6 9.6 0.00 0.20 0.20 35 1012.4
20260506020651 67 275 4.3 7.8 0.00 0.20 0.20 34 1012.4
20260506020149 67 275 6.1 11.3 0.00 0.20 0.20 33 1012.4
20260506015646 67 272 6.1 8.7 0.00 0.20 0.20 34 1012.2
20260506015144 68 287 8.7 12.2 0.00 0.20 0.20 34 1012.2
20260506014641 68 291 6.1 11.3 0.00 0.20 0.20 35 1012.2
20260506014136 68 246 5.2 11.3 0.00 0.20 0.20 35 1012.2
20260506013635 68 251 5.2 11.3 0.00 0.20 0.20 35 1012.3
20260506013131 69 262 7.0 12.2 0.00 0.20 0.20 35 1012.3
20260506012627 69 273 6.1 13.0 0.00 0.20 0.20 35 1012.0
20260506012124 69 287 2.6 11.3 0.00 0.20 0.20 36 1012.3
20260506011622 69 241 9.6 13.9 0.00 0.20 0.20 36 1012.1
20260506011118 69 262 8.7 14.8 0.00 0.20 0.20 35 1012.0
20260506010617 70 286 6.1 13.0 0.00 0.20 0.20 34 1011.7
20260506010113 70 262 4.3 8.7 0.00 0.20 0.20 34 1011.6
20260506005611 70 308 11.3 14.8 0.00 0.20 0.20 33 1011.7
20260506005107 70 281 5.2 11.3 0.00 0.20 0.20 33 1011.9
20260506004604 71 264 7.8 12.2 0.00 0.20 0.20 31 1011.7
20260506004100 71 291 9.6 13.0 0.00 0.20 0.20 31 1011.4
20260506003557 71 278 5.2 7.8 0.00 0.20 0.20 31 1011.5
20260506003053 71 289 6.1 11.3 0.00 0.20 0.20 31 1011.7
20260506002549 71 301 7.8 12.2 0.00 0.20 0.20 31 1011.4
20260506002045 71 279 7.0 9.6 0.00 0.20 0.20 31 1011.3
20260506001541 73 299 6.1 7.8 0.00 0.20 0.20 30 1011.4
20260506001039 72 239 6.1 8.7 0.00 0.20 0.20 28 1011.4
20260506000536 71 237 8.7 12.2 0.00 0.20 0.20 28 1011.4
20260506000034 72 235 4.3 8.7 0.00 0.20 0.20 30 1011.3
20260505235531 72 244 9.6 12.2 0.00 0.20 0.20 30 1011.3
20260505235028 71 278 5.2 7.0 0.00 0.20 0.20 29 1011.2
20260505234525 72 275 6.1 8.7 0.00 0.20 0.20 30 1011.3
20260505234022 73 251 3.5 9.6 0.00 0.20 0.20 29 1011.1
20260505233519 73 237 7.0 13.0 0.00 0.20 0.20 28 1011.2
20260505233017 74 271 8.7 12.2 0.00 0.20 0.20 28 1011.3
20260505232514 73 267 5.2 12.2 0.00 0.20 0.20 27 1011.2
20260505232012 74 294 12.2 15.6 0.00 0.20 0.20 28 1011.2
20260505231508 73 247 4.3 9.6 0.00 0.20 0.20 32 1011.3
20260505231007 72 214 6.1 9.6 0.00 0.20 0.20 32 1011.1
20260505230504 70 244 5.2 12.2 0.00 0.20 0.20 34 1011.4
20260505230000 70 281 2.6 7.8 0.00 0.20 0.20 34 1011.3
20260505225457 70 229 4.3 12.2 0.00 0.20 0.20 34 1011.5
20260505224953 70 266 6.1 11.3 0.00 0.20 0.20 34 1011.4
20260505224450 71 250 6.1 9.6 0.00 0.20 0.20 35 1011.5
20260505223948 71 209 4.3 9.6 0.00 0.20 0.20 35 1011.5
20260505223444 70 272 7.0 15.6 0.00 0.20 0.20 34 1011.5
20260505222941 71 273 4.3 8.7 0.00 0.20 0.20 35 1011.7
20260505222437 71 264 3.5 9.6 0.00 0.20 0.20 34 1011.6
20260505221933 71 248 4.3 8.7 0.00 0.20 0.20 34 1011.6
20260505221431 71 276 1.7 7.0 0.00 0.20 0.20 34 1011.7
20260505220928 72 285 6.1 9.6 0.00 0.20 0.20 33 1011.9
20260505220425 73 251 4.3 7.8 0.00 0.20 0.20 33 1011.7
20260505215922 72 274 5.2 8.7 0.00 0.20 0.20 33 1012.0
20260505215420 73 235 8.7 13.0 0.00 0.20 0.20 32 1012.0
20260505214918 73 344 6.1 13.9 0.00 0.20 0.20 33 1012.3
20260505214415 73 245 7.8 9.6 0.00 0.20 0.20 31 1012.1
20260505213912 73 242 9.6 11.3 0.00 0.20 0.20 31 1012.2
20260505213410 73 242 8.7 13.0 0.00 0.20 0.20 31 1012.3
20260505212906 72 236 6.1 13.9 0.00 0.20 0.20 30 1012.4
20260505212403 74 207 6.1 13.9 0.00 0.20 0.20 31 1012.4
20260505211859 73 279 7.8 17.4 0.00 0.20 0.20 30 1012.3
20260505211357 73 243 7.8 19.1 0.00 0.20 0.20 31 1012.3
20260505210853 73 259 9.6 18.2 0.00 0.20 0.20 30 1012.5
20260505210350 73 267 7.8 13.9 0.00 0.20 0.20 31 1012.6
20260505205847 73 238 6.1 13.9 0.00 0.20 0.20 32 1012.6
20260505205345 72 239 7.0 15.6 0.00 0.20 0.20 35 1012.6
20260505204842 72 262 8.7 12.2 0.00 0.20 0.20 35 1012.6
20260505204340 72 192 9.6 13.0 0.00 0.20 0.20 35 1012.6
20260505203837 71 350 4.3 8.7 0.00 0.20 0.20 34 1012.6
20260505203333 71 261 7.0 12.2 0.00 0.20 0.20 35 1012.8
20260505202830 72 256 9.6 13.9 0.00 0.20 0.20 35 1012.7
20260505202326 71 279 7.0 11.3 0.00 0.20 0.20 38 1012.7
20260505201823 73 203 7.0 17.4 0.00 0.20 0.20 39 1012.9
20260505201320 74 305 6.1 13.0 0.00 0.20 0.20 40 1012.8
20260505200818 72 244 8.7 11.3 0.00 0.20 0.20 41 1012.9
20260505200315 71 244 5.2 9.6 0.00 0.20 0.20 48 1012.8
20260505195810 69 315 4.3 7.0 0.00 0.20 0.20 49 1012.6
20260505195308 69 312 1.7 5.2 0.00 0.20 0.20 53 1013.1
20260505194805 69 297 0.9 5.2 0.00 0.20 0.20 54 1013.1
20260505194302 68 302 3.5 6.1 0.00 0.20 0.20 54 1013.1
20260505193757 68 296 3.5 5.2 0.00 0.20 0.20 54 1012.9
20260505193255 68 1 2.6 7.0 0.00 0.20 0.20 53 1012.9
20260505192753 67 323 1.7 5.2 0.00 0.20 0.20 55 1013.2
20260505192250 68 280 3.5 5.2 0.00 0.20 0.20 55 1013.3
20260505191748 69 311 3.5 7.0 0.00 0.20 0.20 54 1013.2
20260505191247 68 246 7.0 7.8 0.00 0.20 0.20 54 1013.3
20260505190742 67 223 3.5 5.2 0.00 0.20 0.20 55 1013.3
20260505190237 68 284 1.7 4.3 0.00 0.20 0.20 56 1013.2
20260505185734 67 261 1.7 4.3 0.00 0.20 0.20 56 1013.5
20260505185231 66 2 0.9 4.3 0.00 0.20 0.20 58 1013.8
20260505184726 65 238 2.6 4.3 0.00 0.20 0.20 59 1013.8
20260505184224 66 184 5.2 6.1 0.00 0.20 0.20 59 1013.8
20260505183720 67 250 4.3 5.2 0.00 0.20 0.20 58 1013.9
20260505183218 66 301 1.7 5.2 0.00 0.20 0.20 59 1013.7
20260505182714 66 205 5.2 7.0 0.00 0.20 0.20 59 1013.8
20260505182212 66 295 2.6 4.3 0.00 0.20 0.20 62 1014.0
20260505181708 64 294 5.2 5.2 0.00 0.20 0.20 62 1014.3
20260505181206 65 274 4.3 6.1 0.00 0.20 0.20 62 1014.3
20260505180702 65 344 0.0 1.7 0.00 0.20 0.20 61 1014.0
20260505180159 65 12 2.6 2.6 0.00 0.20 0.20 61 1014.1
20260505175654 65 276 2.6 6.1 0.00 0.20 0.20 61 1014.3
20260505175151 65 234 2.6 5.2 0.00 0.20 0.20 64 1014.1
20260505174648 64 284 2.6 2.6 0.00 0.20 0.20 64 1014.1
20260505174144 64 293 1.7 2.6 0.00 0.20 0.20 64 1014.1
20260505173641 64 311 0.9 4.3 0.00 0.20 0.20 66 1014.1
20260505173138 65 270 7.0 8.7 0.00 0.20 0.20 63 1014.1
20260505172635 65 36 2.6 2.6 0.00 0.20 0.20 62 1014.1
20260505172132 65 301 2.6 2.6 0.00 0.20 0.20 62 1014.4
20260505171626 65 351 0.0 0.9 0.00 0.20 0.20 63 1014.4
20260505171124 65 15 0.9 1.7 0.00 0.20 0.20 62 1014.5
20260505170621 64 331 0.0 1.7 0.00 0.20 0.20 62 1014.3
20260505170117 64 347 0.0 2.6 0.00 0.20 0.20 63 1014.3
20260505165612 63 233 3.5 4.3 0.00 0.20 0.20 64 1014.3
20260505165108 63 277 2.6 2.6 0.00 0.20 0.20 62 1014.3
20260505164604 63 289 2.6 4.3 0.00 0.20 0.20 64 1014.3
20260505164102 63 337 0.0 2.6 0.00 0.20 0.20 70 1014.3
20260505163600 64 330 0.9 1.7 0.00 0.20 0.20 70 1014.4
20260505163057 63 302 0.9 1.7 0.00 0.20 0.20 72 1014.0
20260505162555 62 325 0.9 1.7 0.00 0.20 0.20 76 1014.5
20260505162052 61 305 0.9 1.7 0.00 0.20 0.20 74 1014.4
20260505161549 61 302 1.7 1.7 0.00 0.20 0.20 75 1014.4
20260505161047 61 324 0.9 1.7 0.00 0.20 0.20 76 1014.4
20260505160544 61 273 2.6 2.6 0.00 0.20 0.20 75 1014.5
20260505153021 61 289 0.9 1.7 0.00 0.20 0.20 75 1014.0
20260505152518 61 285 0.9 1.7 0.00 0.20 0.20 78 1014.0
20260505152013 61 330 0.9 0.9 0.00 0.20 0.20 78 1014.0
20260505151508 60 311 0.0 1.7 0.00 0.20 0.20 78 1013.9
20260505151006 60 288 1.7 1.7 0.00 0.20 0.20 78 1014.1
20260505150502 60 300 1.7 2.6 0.00 0.20 0.20 78 1014.0
20260505140427 59 0 1.7 1.7 0.00 0.20 0.20 80 1013.6
20260505124841 57 27 0.9 0.9 0.00 0.20 0.20 92 1012.9
20260505124338 56 49 0.9 1.7 0.00 0.20 0.20 92 1013.2
20260505123834 56 6 0.0 0.0 0.00 0.20 0.20 92 1013.1
20260505123330 56 7 0.0 0.9 0.00 0.20 0.20 91 1012.9
20260505122826 57 8 0.0 0.0 0.00 0.20 0.20 91 1012.8
20260505122324 56 3 0.0 0.9 0.00 0.20 0.20 91 1012.8
20260505121820 56 27 0.9 1.7 0.00 0.20 0.20 92 1012.8
20260505121318 56 30 1.7 1.7 0.00 0.20 0.20 92 1012.3
20260505120814 56 2 0.0 0.0 0.07 0.20 0.20 92 1012.6
20260505120310 56 336 0.0 0.9 0.07 0.20 0.20 91 1012.7
20260505115808 56 25 0.0 1.7 0.00 0.19 0.19 90 1012.6
20260505115306 56 30 0.9 2.6 0.00 0.19 0.19 89 1012.6
20260505114804 56 7 0.0 0.9 0.00 0.19 0.19 88 1012.6
20260505114300 56 20 0.9 4.3 0.00 0.19 0.19 88 1012.5
20260505113756 56 39 2.6 4.3 0.00 0.19 0.19 89 1012.3
20260505113253 56 56 1.7 2.6 0.00 0.19 0.19 89 1013.1
20260505112748 56 61 0.9 2.6 0.00 0.19 0.19 90 1013.1
20260505112246 56 48 0.9 2.6 0.00 0.19 0.19 90 1012.9
20260505111741 56 42 1.7 2.6 0.05 0.19 0.19 89 1012.7
20260505111237 56 83 4.3 5.2 0.05 0.19 0.19 91 1012.7
20260505110733 56 43 1.7 4.3 0.00 0.18 0.18 91 1012.8
20260505110231 57 27 0.9 4.3 0.00 0.18 0.18 90 1012.8
20260505102207 56 74 3.5 5.2 0.07 0.17 0.17 93 1013.7
20260505101705 56 51 2.6 4.3 0.00 0.16 0.16 93 1013.9
20260505101201 56 48 2.6 4.3 0.00 0.16 0.16 93 1014.0
20260505100657 56 78 4.3 6.1 0.00 0.16 0.16 93 1014.0
20260505100154 56 43 2.6 2.6 0.00 0.16 0.16 93 1014.3
20260505095650 56 73 2.6 5.2 0.00 0.16 0.16 93 1014.4
20260505095148 56 36 1.7 4.3 0.00 0.16 0.16 94 1014.3
20260505094643 56 89 3.5 5.2 0.05 0.16 0.16 94 1014.3
20260505094140 56 120 2.6 4.3 0.12 0.16 0.16 94 1014.0
20260505093636 57 33 2.6 5.2 0.12 0.15 0.15 94 1014.0
20260505093134 57 87 4.3 8.7 0.05 0.14 0.14 94 1014.3
20260505092630 57 72 6.1 7.8 0.07 0.13 0.13 94 1014.8
20260505092129 57 83 2.6 7.8 0.07 0.13 0.13 93 1014.7
20260505091625 57 85 7.8 9.6 0.00 0.12 0.12 93 1014.5
20260505091124 57 109 6.1 8.7 0.05 0.12 0.12 93 1014.6
20260505090621 57 85 7.8 13.0 0.05 0.12 0.12 93 1014.4
20260505090119 57 108 5.2 9.6 0.00 0.11 0.11 92 1015.0
20260505085616 57 93 5.2 7.0 0.00 0.11 0.11 92 1014.7
20260505085115 57 70 6.1 7.0 0.00 0.11 0.11 92 1014.8
20260505084612 57 58 2.6 5.2 0.07 0.11 0.11 92 1015.0
20260505084110 57 82 2.6 6.1 0.07 0.11 0.11 92 1015.3
20260505083608 57 71 2.6 5.2 0.00 0.10 0.10 92 1015.6
20260505083104 57 47 2.6 4.3 0.05 0.10 0.10 92 1015.9
20260505082559 57 44 0.9 2.6 0.05 0.10 0.10 92 1015.9
20260505082057 57 70 0.9 2.6 0.00 0.09 0.09 92 1015.8
20260505081553 57 56 2.6 4.3 0.07 0.09 0.09 92 1015.9
20260505081050 57 52 2.6 2.6 0.07 0.09 0.09 92 1016.0
20260505080546 57 52 0.9 2.6 0.05 0.08 0.08 92 1016.0
20260505080043 56 27 0.9 1.7 0.07 0.07 0.07 92 1016.5
20260505075539 57 73 1.7 1.7 0.07 0.06 0.06 93 1016.4
20260505075036 57 44 0.9 1.7 0.07 0.06 0.06 93 1016.6
20260505074533 57 4 0.0 0.0 0.05 0.05 0.05 93 1017.0
20260505074030 57 12 0.0 0.9 0.12 0.05 0.05 93 1016.9
20260505073527 57 34 1.7 2.6 0.07 0.04 0.04 93 1017.0
20260505073026 57 14 2.6 2.6 0.05 0.03 0.03 93 1016.6
20260505072521 57 17 2.6 5.2 0.05 0.03 0.03 93 1016.8
20260505072018 58 4 2.6 2.6 0.07 0.02 0.02 93 1016.8
20260505071513 58 5 0.0 0.0 0.07 0.02 0.02 93 1016.5
20260505071012 57 20 0.9 1.7 0.05 0.01 0.01 93 1016.5
20260505070509 58 1 0.0 0.0 0.12 0.01 0.01 93 1016.6
20260505070005 58 4 0.0 0.0 0.12 0.53 0.53 93 1016.8
20260505065501 58 1 0.0 0.0 0.05 0.52 0.52 93 1016.2
20260505064957 58 356 0.0 0.0 0.00 0.51 0.51 92 1016.4
20260505064454 58 7 0.0 0.0 0.07 0.51 0.51 92 1016.4
20260505063953 57 6 0.9 0.9 0.07 0.51 0.51 91 1016.2
20260505063449 57 9 0.9 1.7 0.12 0.50 0.50 91 1016.2
20260505062945 57 25 2.6 2.6 0.24 0.50 0.50 91 1016.3
20260505062442 57 19 1.7 2.6 0.24 0.48 0.48 91 1016.3
20260505061939 57 40 2.6 2.6 0.24 0.46 0.46 92 1016.5
20260505061437 57 12 0.9 1.7 0.24 0.44 0.44 91 1016.3
20260505060935 57 354 0.0 0.9 0.24 0.42 0.42 91 1016.4
20260505060432 57 13 1.7 2.6 0.19 0.40 0.40 91 1016.4
20260505055928 57 3 0.0 0.9 0.12 0.38 0.38 91 1016.5
20260505055424 57 35 0.9 1.7 0.17 0.37 0.37 91 1016.5
20260505054921 57 39 0.9 2.6 0.12 0.35 0.35 90 1016.2
20260505054418 57 35 0.9 1.7 0.19 0.34 0.34 90 1016.2
20260505053916 57 25 1.7 2.6 0.19 0.33 0.33 90 1016.2
20260505053413 58 2 1.7 1.7 0.19 0.31 0.31 90 1016.4
20260505052910 58 3 0.9 0.9 0.17 0.30 0.30 90 1016.5
20260505052406 58 20 1.7 1.7 0.05 0.28 0.28 89 1016.4
20260505051904 58 338 0.0 0.9 0.07 0.27 0.27 88 1016.3
20260505051401 58 18 1.7 1.7 0.07 0.27 0.27 87 1016.1
20260505050859 58 21 0.9 1.7 0.00 0.26 0.26 87 1016.1
20260505050357 58 28 0.9 0.9 0.05 0.26 0.26 85 1016.1